sat.trackr.live / text

‹ back to catalog

STARLINK-30123

NORAD 56838 · 2023-079R

PAYLOAD ACTIVE UNKNOWN

§ Identity

Operator
Country
US
Launch date
2023-06-04
Launch site
AFETR
Launch vehicle
Mass (kg)
RCS (m²)

Purposes: comms

External: N2YO · Heavens-Above · Gunter

§ Orbital elements

Epoch: 2026-09-20T14:09:50.178240Z

Period
94.27 min
Inclination
43.0000°
Eccentricity
0.0000606
Mean motion
15.27595810 rev/d
Perigee alt
482.6 km
Apogee alt
483.4 km
Semi-major
6,861.1 km
B*
-1.0118e-4
RAAN
13.2454°
Arg perigee
234.5126°
Mean anomaly
125.5669°
Rev number
18,355

§ Raw data

STARLINK-301231 56838U 23079R   26263.59016410 -.00003046  00000+0 -10118-3 0  99942 56838  43.0000  13.2454 0000606 234.5126 125.5669 15.27595810183552

JSON: /api/v1/satellites/56838 · /tle

For live sub-satellite position, see the globe view (requires WebGL).

§ Visibility from observer

Set your observer location to see the next 7 days of passes ≥ 10°. The values pass through the URL so the page stays shareable.

No JS? Fill the form by hand. The geolocation button needs JavaScript.